Index of /20260430/WXO-DD/model_gdps/15km/12/198
Name Last modified Size Description
Parent Directory -
20260430T12Z_MSC_GDPS_AbsoluteVorticity_IsbL-0200_LatLon0.15_PT198H.grib2 2026-04-30 16:32 1.2M
20260430T12Z_MSC_GDPS_AbsoluteVorticity_IsbL-0250_LatLon0.15_PT198H.grib2 2026-04-30 16:32 1.4M
20260430T12Z_MSC_GDPS_AbsoluteVorticity_IsbL-0500_LatLon0.15_PT198H.grib2 2026-04-30 16:32 1.5M
20260430T12Z_MSC_GDPS_AbsoluteVorticity_IsbL-0700_LatLon0.15_PT198H.grib2 2026-04-30 16:32 1.3M
20260430T12Z_MSC_GDPS_AbsoluteVorticity_IsbL-0850_LatLon0.15_PT198H.grib2 2026-04-30 16:32 1.6M
20260430T12Z_MSC_GDPS_AirTemp-Max_AGL-2m_LatLon0.15_PT198H.grib2 2026-04-30 16:32 744K
20260430T12Z_MSC_GDPS_AirTemp-Min_AGL-2m_LatLon0.15_PT198H.grib2 2026-04-30 16:32 791K
20260430T12Z_MSC_GDPS_AirTemp_AGL-120m_LatLon0.15_PT198H.grib2 2026-04-30 16:32 906K
20260430T12Z_MSC_GDPS_AirTemp_AGL-2m_LatLon0.15_PT198H.grib2 2026-04-30 16:32 1.0M
20260430T12Z_MSC_GDPS_AirTemp_AGL-40m_LatLon0.15_PT198H.grib2 2026-04-30 16:32 808K
20260430T12Z_MSC_GDPS_AirTemp_AGL-80m_LatLon0.15_PT198H.grib2 2026-04-30 16:32 914K
20260430T12Z_MSC_GDPS_AirTemp_IsbL-0001_LatLon0.15_PT198H.grib2 2026-04-30 16:32 665K
20260430T12Z_MSC_GDPS_AirTemp_IsbL-0005_LatLon0.15_PT198H.grib2 2026-04-30 16:32 697K
20260430T12Z_MSC_GDPS_AirTemp_IsbL-0010_LatLon0.15_PT198H.grib2 2026-04-30 16:32 763K
20260430T12Z_MSC_GDPS_AirTemp_IsbL-0020_LatLon0.15_PT198H.grib2 2026-04-30 16:32 785K
20260430T12Z_MSC_GDPS_AirTemp_IsbL-0030_LatLon0.15_PT198H.grib2 2026-04-30 16:32 834K
20260430T12Z_MSC_GDPS_AirTemp_IsbL-0050_LatLon0.15_PT198H.grib2 2026-04-30 16:32 800K
20260430T12Z_MSC_GDPS_AirTemp_IsbL-0100_LatLon0.15_PT198H.grib2 2026-04-30 16:32 968K
20260430T12Z_MSC_GDPS_AirTemp_IsbL-0150_LatLon0.15_PT198H.grib2 2026-04-30 16:32 1.0M
20260430T12Z_MSC_GDPS_AirTemp_IsbL-0175_LatLon0.15_PT198H.grib2 2026-04-30 16:32 954K
20260430T12Z_MSC_GDPS_AirTemp_IsbL-0200_LatLon0.15_PT198H.grib2 2026-04-30 16:32 968K
20260430T12Z_MSC_GDPS_AirTemp_IsbL-0225_LatLon0.15_PT198H.grib2 2026-04-30 16:32 970K
20260430T12Z_MSC_GDPS_AirTemp_IsbL-0250_LatLon0.15_PT198H.grib2 2026-04-30 16:32 1.0M
20260430T12Z_MSC_GDPS_AirTemp_IsbL-0275_LatLon0.15_PT198H.grib2 2026-04-30 16:32 1.0M
20260430T12Z_MSC_GDPS_AirTemp_IsbL-0300_LatLon0.15_PT198H.grib2 2026-04-30 16:32 945K
20260430T12Z_MSC_GDPS_AirTemp_IsbL-0350_LatLon0.15_PT198H.grib2 2026-04-30 16:32 929K
20260430T12Z_MSC_GDPS_AirTemp_IsbL-0400_LatLon0.15_PT198H.grib2 2026-04-30 16:32 945K
20260430T12Z_MSC_GDPS_AirTemp_IsbL-0450_LatLon0.15_PT198H.grib2 2026-04-30 16:32 969K
20260430T12Z_MSC_GDPS_AirTemp_IsbL-0500_LatLon0.15_PT198H.grib2 2026-04-30 16:32 1.0M
20260430T12Z_MSC_GDPS_AirTemp_IsbL-0550_LatLon0.15_PT198H.grib2 2026-04-30 16:32 810K
20260430T12Z_MSC_GDPS_AirTemp_IsbL-0600_LatLon0.15_PT198H.grib2 2026-04-30 16:32 904K
20260430T12Z_MSC_GDPS_AirTemp_IsbL-0650_LatLon0.15_PT198H.grib2 2026-04-30 16:32 931K
20260430T12Z_MSC_GDPS_AirTemp_IsbL-0700_LatLon0.15_PT198H.grib2 2026-04-30 16:32 962K
20260430T12Z_MSC_GDPS_AirTemp_IsbL-0750_LatLon0.15_PT198H.grib2 2026-04-30 16:32 1.0M
20260430T12Z_MSC_GDPS_AirTemp_IsbL-0800_LatLon0.15_PT198H.grib2 2026-04-30 16:32 1.1M
20260430T12Z_MSC_GDPS_AirTemp_IsbL-0850_LatLon0.15_PT198H.grib2 2026-04-30 16:32 1.1M
20260430T12Z_MSC_GDPS_AirTemp_IsbL-0875_LatLon0.15_PT198H.grib2 2026-04-30 16:32 1.2M
20260430T12Z_MSC_GDPS_AirTemp_IsbL-0900_LatLon0.15_PT198H.grib2 2026-04-30 16:32 1.2M
20260430T12Z_MSC_GDPS_AirTemp_IsbL-0925_LatLon0.15_PT198H.grib2 2026-04-30 16:32 1.1M
20260430T12Z_MSC_GDPS_AirTemp_IsbL-0950_LatLon0.15_PT198H.grib2 2026-04-30 16:32 1.2M
20260430T12Z_MSC_GDPS_AirTemp_IsbL-0970_LatLon0.15_PT198H.grib2 2026-04-30 16:32 1.2M
20260430T12Z_MSC_GDPS_AirTemp_IsbL-0985_LatLon0.15_PT198H.grib2 2026-04-30 16:32 1.1M
20260430T12Z_MSC_GDPS_AirTemp_IsbL-1000_LatLon0.15_PT198H.grib2 2026-04-30 16:32 1.1M
20260430T12Z_MSC_GDPS_AirTemp_IsbL-1015_LatLon0.15_PT198H.grib2 2026-04-30 16:32 1.1M
20260430T12Z_MSC_GDPS_Albedo_Sfc_LatLon0.15_PT198H.grib2 2026-04-30 16:32 245K
20260430T12Z_MSC_GDPS_CAPE_Sfc_LatLon0.15_PT198H.grib2 2026-04-30 16:32 3.8M
20260430T12Z_MSC_GDPS_CIN_Sfc_LatLon0.15_PT198H.grib2 2026-04-30 16:32 3.0M
20260430T12Z_MSC_GDPS_CloudWater_EAtm_LatLon0.15_PT198H.grib2 2026-04-30 16:32 545K
20260430T12Z_MSC_GDPS_ConvectivePrecip-Accum_Sfc_LatLon0.15_PT198H.grib2 2026-04-30 16:32 3.9M
20260430T12Z_MSC_GDPS_DewPointDepression_AGL-2m_LatLon0.15_PT198H.grib2 2026-04-30 16:32 768K
20260430T12Z_MSC_GDPS_DewPointDepression_IsbL-0010_LatLon0.15_PT198H.grib2 2026-04-30 16:32 69K
20260430T12Z_MSC_GDPS_DewPointDepression_IsbL-0020_LatLon0.15_PT198H.grib2 2026-04-30 16:32 75K
20260430T12Z_MSC_GDPS_DewPointDepression_IsbL-0030_LatLon0.15_PT198H.grib2 2026-04-30 16:32 88K
20260430T12Z_MSC_GDPS_DewPointDepression_IsbL-0050_LatLon0.15_PT198H.grib2 2026-04-30 16:32 379K
20260430T12Z_MSC_GDPS_DewPointDepression_IsbL-0100_LatLon0.15_PT198H.grib2 2026-04-30 16:32 400K
20260430T12Z_MSC_GDPS_DewPointDepression_IsbL-0150_LatLon0.15_PT198H.grib2 2026-04-30 16:32 490K
20260430T12Z_MSC_GDPS_DewPointDepression_IsbL-0175_LatLon0.15_PT198H.grib2 2026-04-30 16:32 587K
20260430T12Z_MSC_GDPS_DewPointDepression_IsbL-0200_LatLon0.15_PT198H.grib2 2026-04-30 16:32 686K
20260430T12Z_MSC_GDPS_DewPointDepression_IsbL-0225_LatLon0.15_PT198H.grib2 2026-04-30 16:32 774K
20260430T12Z_MSC_GDPS_DewPointDepression_IsbL-0250_LatLon0.15_PT198H.grib2 2026-04-30 16:32 870K
20260430T12Z_MSC_GDPS_DewPointDepression_IsbL-0275_LatLon0.15_PT198H.grib2 2026-04-30 16:32 898K
20260430T12Z_MSC_GDPS_DewPointDepression_IsbL-0300_LatLon0.15_PT198H.grib2 2026-04-30 16:32 940K
20260430T12Z_MSC_GDPS_DewPointDepression_IsbL-0350_LatLon0.15_PT198H.grib2 2026-04-30 16:32 964K
20260430T12Z_MSC_GDPS_DewPointDepression_IsbL-0400_LatLon0.15_PT198H.grib2 2026-04-30 16:32 1.0M
20260430T12Z_MSC_GDPS_DewPointDepression_IsbL-0450_LatLon0.15_PT198H.grib2 2026-04-30 16:32 1.0M
20260430T12Z_MSC_GDPS_DewPointDepression_IsbL-0500_LatLon0.15_PT198H.grib2 2026-04-30 16:32 1.0M
20260430T12Z_MSC_GDPS_DewPointDepression_IsbL-0550_LatLon0.15_PT198H.grib2 2026-04-30 16:32 1.0M
20260430T12Z_MSC_GDPS_DewPointDepression_IsbL-0600_LatLon0.15_PT198H.grib2 2026-04-30 16:32 1.1M
20260430T12Z_MSC_GDPS_DewPointDepression_IsbL-0650_LatLon0.15_PT198H.grib2 2026-04-30 16:32 1.1M
20260430T12Z_MSC_GDPS_DewPointDepression_IsbL-0700_LatLon0.15_PT198H.grib2 2026-04-30 16:32 1.1M
20260430T12Z_MSC_GDPS_DewPointDepression_IsbL-0750_LatLon0.15_PT198H.grib2 2026-04-30 16:32 1.1M
20260430T12Z_MSC_GDPS_DewPointDepression_IsbL-0800_LatLon0.15_PT198H.grib2 2026-04-30 16:32 1.2M
20260430T12Z_MSC_GDPS_DewPointDepression_IsbL-0850_LatLon0.15_PT198H.grib2 2026-04-30 16:32 1.2M
20260430T12Z_MSC_GDPS_DewPointDepression_IsbL-0875_LatLon0.15_PT198H.grib2 2026-04-30 16:32 1.1M
20260430T12Z_MSC_GDPS_DewPointDepression_IsbL-0900_LatLon0.15_PT198H.grib2 2026-04-30 16:32 1.1M
20260430T12Z_MSC_GDPS_DewPointDepression_IsbL-0925_LatLon0.15_PT198H.grib2 2026-04-30 16:32 1.0M
20260430T12Z_MSC_GDPS_DewPointDepression_IsbL-0950_LatLon0.15_PT198H.grib2 2026-04-30 16:32 1.0M
20260430T12Z_MSC_GDPS_DewPointDepression_IsbL-0970_LatLon0.15_PT198H.grib2 2026-04-30 16:32 1.0M
20260430T12Z_MSC_GDPS_DewPointDepression_IsbL-0985_LatLon0.15_PT198H.grib2 2026-04-30 16:32 1.0M
20260430T12Z_MSC_GDPS_DewPointDepression_IsbL-1000_LatLon0.15_PT198H.grib2 2026-04-30 16:32 1.0M
20260430T12Z_MSC_GDPS_DewPointDepression_IsbL-1015_LatLon0.15_PT198H.grib2 2026-04-30 16:32 923K
20260430T12Z_MSC_GDPS_DewPoint_AGL-2m_LatLon0.15_PT198H.grib2 2026-04-30 16:32 615K
20260430T12Z_MSC_GDPS_DownwardLongwaveRadiationFlux-Accum_Sfc_LatLon0.15_PT198H.grib2 2026-04-30 16:32 709K
20260430T12Z_MSC_GDPS_DownwardShortwaveRadiationFlux-Accum_NTAtm_LatLon0.15_PT198H.grib2 2026-04-30 16:32 244K
20260430T12Z_MSC_GDPS_DownwardShortwaveRadiationFlux-Accum_Sfc_LatLon0.15_PT198H.grib2 2026-04-30 16:32 859K
20260430T12Z_MSC_GDPS_FreezingRain-Accum12h_Sfc_LatLon0.15_PT198H.grib2 2026-04-30 16:32 103K
20260430T12Z_MSC_GDPS_FreezingRain-Accum24h_Sfc_LatLon0.15_PT198H.grib2 2026-04-30 16:32 145K
20260430T12Z_MSC_GDPS_FreezingRain-Accum6h_Sfc_LatLon0.15_PT198H.grib2 2026-04-30 16:32 86K
20260430T12Z_MSC_GDPS_FreezingRain-Accum_Sfc_LatLon0.15_PT198H.grib2 2026-04-30 16:32 511K
20260430T12Z_MSC_GDPS_GeopotentialHeight_IsbL-0001_LatLon0.15_PT198H.grib2 2026-04-30 16:32 446K
20260430T12Z_MSC_GDPS_GeopotentialHeight_IsbL-0005_LatLon0.15_PT198H.grib2 2026-04-30 16:32 490K
20260430T12Z_MSC_GDPS_GeopotentialHeight_IsbL-0010_LatLon0.15_PT198H.grib2 2026-04-30 16:32 475K
20260430T12Z_MSC_GDPS_GeopotentialHeight_IsbL-0020_LatLon0.15_PT198H.grib2 2026-04-30 16:32 410K
20260430T12Z_MSC_GDPS_GeopotentialHeight_IsbL-0030_LatLon0.15_PT198H.grib2 2026-04-30 16:32 415K
20260430T12Z_MSC_GDPS_GeopotentialHeight_IsbL-0050_LatLon0.15_PT198H.grib2 2026-04-30 16:32 569K
20260430T12Z_MSC_GDPS_GeopotentialHeight_IsbL-0100_LatLon0.15_PT198H.grib2 2026-04-30 16:32 607K
20260430T12Z_MSC_GDPS_GeopotentialHeight_IsbL-0150_LatLon0.15_PT198H.grib2 2026-04-30 16:32 627K
20260430T12Z_MSC_GDPS_GeopotentialHeight_IsbL-0175_LatLon0.15_PT198H.grib2 2026-04-30 16:32 632K
20260430T12Z_MSC_GDPS_GeopotentialHeight_IsbL-0200_LatLon0.15_PT198H.grib2 2026-04-30 16:32 639K
20260430T12Z_MSC_GDPS_GeopotentialHeight_IsbL-0225_LatLon0.15_PT198H.grib2 2026-04-30 16:32 639K
20260430T12Z_MSC_GDPS_GeopotentialHeight_IsbL-0250_LatLon0.15_PT198H.grib2 2026-04-30 16:32 645K
20260430T12Z_MSC_GDPS_GeopotentialHeight_IsbL-0275_LatLon0.15_PT198H.grib2 2026-04-30 16:32 646K
20260430T12Z_MSC_GDPS_GeopotentialHeight_IsbL-0300_LatLon0.15_PT198H.grib2 2026-04-30 16:32 645K
20260430T12Z_MSC_GDPS_GeopotentialHeight_IsbL-0350_LatLon0.15_PT198H.grib2 2026-04-30 16:32 633K
20260430T12Z_MSC_GDPS_GeopotentialHeight_IsbL-0400_LatLon0.15_PT198H.grib2 2026-04-30 16:32 625K
20260430T12Z_MSC_GDPS_GeopotentialHeight_IsbL-0450_LatLon0.15_PT198H.grib2 2026-04-30 16:32 614K
20260430T12Z_MSC_GDPS_GeopotentialHeight_IsbL-0500_LatLon0.15_PT198H.grib2 2026-04-30 16:32 534K
20260430T12Z_MSC_GDPS_GeopotentialHeight_IsbL-0550_LatLon0.15_PT198H.grib2 2026-04-30 16:32 526K
20260430T12Z_MSC_GDPS_GeopotentialHeight_IsbL-0600_LatLon0.15_PT198H.grib2 2026-04-30 16:32 525K
20260430T12Z_MSC_GDPS_GeopotentialHeight_IsbL-0650_LatLon0.15_PT198H.grib2 2026-04-30 16:32 694K
20260430T12Z_MSC_GDPS_GeopotentialHeight_IsbL-0700_LatLon0.15_PT198H.grib2 2026-04-30 16:32 697K
20260430T12Z_MSC_GDPS_GeopotentialHeight_IsbL-0750_LatLon0.15_PT198H.grib2 2026-04-30 16:32 702K
20260430T12Z_MSC_GDPS_GeopotentialHeight_IsbL-0800_LatLon0.15_PT198H.grib2 2026-04-30 16:32 710K
20260430T12Z_MSC_GDPS_GeopotentialHeight_IsbL-0850_LatLon0.15_PT198H.grib2 2026-04-30 16:32 722K
20260430T12Z_MSC_GDPS_GeopotentialHeight_IsbL-0875_LatLon0.15_PT198H.grib2 2026-04-30 16:32 720K
20260430T12Z_MSC_GDPS_GeopotentialHeight_IsbL-0900_LatLon0.15_PT198H.grib2 2026-04-30 16:32 727K
20260430T12Z_MSC_GDPS_GeopotentialHeight_IsbL-0925_LatLon0.15_PT198H.grib2 2026-04-30 16:32 738K
20260430T12Z_MSC_GDPS_GeopotentialHeight_IsbL-0950_LatLon0.15_PT198H.grib2 2026-04-30 16:32 746K
20260430T12Z_MSC_GDPS_GeopotentialHeight_IsbL-0970_LatLon0.15_PT198H.grib2 2026-04-30 16:32 757K
20260430T12Z_MSC_GDPS_GeopotentialHeight_IsbL-0985_LatLon0.15_PT198H.grib2 2026-04-30 16:32 771K
20260430T12Z_MSC_GDPS_GeopotentialHeight_IsbL-1000_LatLon0.15_PT198H.grib2 2026-04-30 16:32 792K
20260430T12Z_MSC_GDPS_GeopotentialHeight_IsbL-1015_LatLon0.15_PT198H.grib2 2026-04-30 16:32 814K
20260430T12Z_MSC_GDPS_Humidex_Sfc_LatLon0.15_PT198H.grib2 2026-04-30 16:32 5.3M
20260430T12Z_MSC_GDPS_IcePellets-Accum12h_Sfc_LatLon0.15_PT198H.grib2 2026-04-30 16:32 17K
20260430T12Z_MSC_GDPS_IcePellets-Accum24h_Sfc_LatLon0.15_PT198H.grib2 2026-04-30 16:32 16K
20260430T12Z_MSC_GDPS_IcePellets-Accum6h_Sfc_LatLon0.15_PT198H.grib2 2026-04-30 16:32 14K
20260430T12Z_MSC_GDPS_IcePellets-Accum_Sfc_LatLon0.15_PT198H.grib2 2026-04-30 16:32 157K
20260430T12Z_MSC_GDPS_KIndex_Sfc_LatLon0.15_PT198H.grib2 2026-04-30 16:32 6.5M
20260430T12Z_MSC_GDPS_LatentHeatNetFlux_Sfc_LatLon0.15_PT198H.grib2 2026-04-30 16:32 532K
20260430T12Z_MSC_GDPS_LiftedIndex-MU-VT_IsbL-0500_LatLon0.15_PT198H.grib2 2026-04-30 16:32 5.4M
20260430T12Z_MSC_GDPS_NetLongwaveRadiationFlux-Accum_Sfc_LatLon0.15_PT198H.grib2 2026-04-30 16:32 898K
20260430T12Z_MSC_GDPS_NetShortwaveRadiationFlux-Accum_Sfc_LatLon0.15_PT198H.grib2 2026-04-30 16:32 856K
20260430T12Z_MSC_GDPS_O3MixingRatio_Sfc_LatLon0.15_PT198H.grib2 2026-04-30 16:46 1.9M
20260430T12Z_MSC_GDPS_O3_EAtm_LatLon0.15_PT198H.grib2 2026-04-30 16:46 2.4M
20260430T12Z_MSC_GDPS_PlanetaryBoundaryLayerHeight_Sfc_LatLon0.15_PT198H.grib2 2026-04-30 16:32 2.5M
20260430T12Z_MSC_GDPS_Precip-Accum12h_Sfc_LatLon0.15_PT198H.grib2 2026-04-30 16:32 4.1M
20260430T12Z_MSC_GDPS_Precip-Accum24h_Sfc_LatLon0.15_PT198H.grib2 2026-04-30 16:32 4.3M
20260430T12Z_MSC_GDPS_Precip-Accum6h_Sfc_LatLon0.15_PT198H.grib2 2026-04-30 16:32 3.6M
20260430T12Z_MSC_GDPS_Precip-Accum_Sfc_LatLon0.15_PT198H.grib2 2026-04-30 16:32 5.4M
20260430T12Z_MSC_GDPS_PrecipRate_Sfc_LatLon0.15_PT198H.grib2 2026-04-30 16:32 3.1M
20260430T12Z_MSC_GDPS_PrecipType-Instant_Sfc_LatLon0.15_PT198H.grib2 2026-04-30 16:32 1.6M
20260430T12Z_MSC_GDPS_Pressure_MSL_LatLon0.15_PT198H.grib2 2026-04-30 16:32 829K
20260430T12Z_MSC_GDPS_Pressure_PVU-1.5_LatLon0.15_PT198H.grib2 2026-04-30 16:32 5.8M
20260430T12Z_MSC_GDPS_Pressure_PVU-1_LatLon0.15_PT198H.grib2 2026-04-30 16:32 6.0M
20260430T12Z_MSC_GDPS_Pressure_PVU-2_LatLon0.15_PT198H.grib2 2026-04-30 16:32 5.6M
20260430T12Z_MSC_GDPS_Pressure_Sfc_LatLon0.15_PT198H.grib2 2026-04-30 16:32 1.1M
20260430T12Z_MSC_GDPS_RadiativeTemp_Sfc_LatLon0.15_PT198H.grib2 2026-04-30 16:32 668K
20260430T12Z_MSC_GDPS_Rain-Accum12h_Sfc_LatLon0.15_PT198H.grib2 2026-04-30 16:32 2.7M
20260430T12Z_MSC_GDPS_Rain-Accum24h_Sfc_LatLon0.15_PT198H.grib2 2026-04-30 16:32 3.0M
20260430T12Z_MSC_GDPS_Rain-Accum6h_Sfc_LatLon0.15_PT198H.grib2 2026-04-30 16:32 2.4M
20260430T12Z_MSC_GDPS_Rain-Accum_Sfc_LatLon0.15_PT198H.grib2 2026-04-30 16:32 4.3M
20260430T12Z_MSC_GDPS_RelativeHumidity_AGL-2m_LatLon0.15_PT198H.grib2 2026-04-30 16:32 1.0M
20260430T12Z_MSC_GDPS_RelativeHumidity_IsbL-0010_LatLon0.15_PT198H.grib2 2026-04-30 16:32 192K
20260430T12Z_MSC_GDPS_RelativeHumidity_IsbL-0020_LatLon0.15_PT198H.grib2 2026-04-30 16:32 157K
20260430T12Z_MSC_GDPS_RelativeHumidity_IsbL-0030_LatLon0.15_PT198H.grib2 2026-04-30 16:32 180K
20260430T12Z_MSC_GDPS_RelativeHumidity_IsbL-0050_LatLon0.15_PT198H.grib2 2026-04-30 16:32 328K
20260430T12Z_MSC_GDPS_RelativeHumidity_IsbL-0100_LatLon0.15_PT198H.grib2 2026-04-30 16:32 498K
20260430T12Z_MSC_GDPS_RelativeHumidity_IsbL-0150_LatLon0.15_PT198H.grib2 2026-04-30 16:32 677K
20260430T12Z_MSC_GDPS_RelativeHumidity_IsbL-0175_LatLon0.15_PT198H.grib2 2026-04-30 16:32 801K
20260430T12Z_MSC_GDPS_RelativeHumidity_IsbL-0200_LatLon0.15_PT198H.grib2 2026-04-30 16:32 715K
20260430T12Z_MSC_GDPS_RelativeHumidity_IsbL-0225_LatLon0.15_PT198H.grib2 2026-04-30 16:32 797K
20260430T12Z_MSC_GDPS_RelativeHumidity_IsbL-0250_LatLon0.15_PT198H.grib2 2026-04-30 16:32 874K
20260430T12Z_MSC_GDPS_RelativeHumidity_IsbL-0275_LatLon0.15_PT198H.grib2 2026-04-30 16:32 900K
20260430T12Z_MSC_GDPS_RelativeHumidity_IsbL-0300_LatLon0.15_PT198H.grib2 2026-04-30 16:32 943K
20260430T12Z_MSC_GDPS_RelativeHumidity_IsbL-0350_LatLon0.15_PT198H.grib2 2026-04-30 16:32 956K
20260430T12Z_MSC_GDPS_RelativeHumidity_IsbL-0400_LatLon0.15_PT198H.grib2 2026-04-30 16:32 1.0M
20260430T12Z_MSC_GDPS_RelativeHumidity_IsbL-0450_LatLon0.15_PT198H.grib2 2026-04-30 16:32 1.0M
20260430T12Z_MSC_GDPS_RelativeHumidity_IsbL-0500_LatLon0.15_PT198H.grib2 2026-04-30 16:32 1.0M
20260430T12Z_MSC_GDPS_RelativeHumidity_IsbL-0550_LatLon0.15_PT198H.grib2 2026-04-30 16:32 1.0M
20260430T12Z_MSC_GDPS_RelativeHumidity_IsbL-0600_LatLon0.15_PT198H.grib2 2026-04-30 16:32 1.1M
20260430T12Z_MSC_GDPS_RelativeHumidity_IsbL-0650_LatLon0.15_PT198H.grib2 2026-04-30 16:32 1.1M
20260430T12Z_MSC_GDPS_RelativeHumidity_IsbL-0700_LatLon0.15_PT198H.grib2 2026-04-30 16:32 1.2M
20260430T12Z_MSC_GDPS_RelativeHumidity_IsbL-0750_LatLon0.15_PT198H.grib2 2026-04-30 16:32 1.1M
20260430T12Z_MSC_GDPS_RelativeHumidity_IsbL-0800_LatLon0.15_PT198H.grib2 2026-04-30 16:32 1.2M
20260430T12Z_MSC_GDPS_RelativeHumidity_IsbL-0850_LatLon0.15_PT198H.grib2 2026-04-30 16:32 1.3M
20260430T12Z_MSC_GDPS_RelativeHumidity_IsbL-0875_LatLon0.15_PT198H.grib2 2026-04-30 16:32 1.3M
20260430T12Z_MSC_GDPS_RelativeHumidity_IsbL-0900_LatLon0.15_PT198H.grib2 2026-04-30 16:32 1.3M
20260430T12Z_MSC_GDPS_RelativeHumidity_IsbL-0925_LatLon0.15_PT198H.grib2 2026-04-30 16:32 1.2M
20260430T12Z_MSC_GDPS_RelativeHumidity_IsbL-0950_LatLon0.15_PT198H.grib2 2026-04-30 16:32 1.2M
20260430T12Z_MSC_GDPS_RelativeHumidity_IsbL-0970_LatLon0.15_PT198H.grib2 2026-04-30 16:32 1.2M
20260430T12Z_MSC_GDPS_RelativeHumidity_IsbL-0985_LatLon0.15_PT198H.grib2 2026-04-30 16:32 1.1M
20260430T12Z_MSC_GDPS_RelativeHumidity_IsbL-1000_LatLon0.15_PT198H.grib2 2026-04-30 16:32 1.1M
20260430T12Z_MSC_GDPS_RelativeHumidity_IsbL-1015_LatLon0.15_PT198H.grib2 2026-04-30 16:32 1.1M
20260430T12Z_MSC_GDPS_RelativeVorticity_IsbL-0200_LatLon0.15_PT198H.grib2 2026-04-30 16:32 1.2M
20260430T12Z_MSC_GDPS_RelativeVorticity_IsbL-0250_LatLon0.15_PT198H.grib2 2026-04-30 16:32 1.3M
20260430T12Z_MSC_GDPS_RelativeVorticity_IsbL-0500_LatLon0.15_PT198H.grib2 2026-04-30 16:32 1.5M
20260430T12Z_MSC_GDPS_RelativeVorticity_IsbL-0700_LatLon0.15_PT198H.grib2 2026-04-30 16:32 1.3M
20260430T12Z_MSC_GDPS_RelativeVorticity_IsbL-0850_LatLon0.15_PT198H.grib2 2026-04-30 16:32 1.6M
20260430T12Z_MSC_GDPS_Runoff-Accum_Sfc_LatLon0.15_PT198H.grib2 2026-04-30 16:32 130K
20260430T12Z_MSC_GDPS_SensibleHeatNetFlux_Sfc_LatLon0.15_PT198H.grib2 2026-04-30 16:32 467K
20260430T12Z_MSC_GDPS_ShowalterIndex_IsbL-0500_LatLon0.15_PT198H.grib2 2026-04-30 16:32 6.2M
20260430T12Z_MSC_GDPS_Snow-Accum12h_Sfc_LatLon0.15_PT198H.grib2 2026-04-30 16:32 1.5M
20260430T12Z_MSC_GDPS_Snow-Accum24h_Sfc_LatLon0.15_PT198H.grib2 2026-04-30 16:32 1.6M
20260430T12Z_MSC_GDPS_Snow-Accum6h_Sfc_LatLon0.15_PT198H.grib2 2026-04-30 16:32 1.5M
20260430T12Z_MSC_GDPS_Snow-Accum_Sfc_LatLon0.15_PT198H.grib2 2026-04-30 16:32 2.1M
20260430T12Z_MSC_GDPS_SnowDensity_Sfc_LatLon0.15_PT198H.grib2 2026-04-30 16:32 259K
20260430T12Z_MSC_GDPS_SnowDepth_Sfc_LatLon0.15_PT198H.grib2 2026-04-30 16:32 1.7M
20260430T12Z_MSC_GDPS_SoilTemp_DBS-0to10cm_LatLon0.15_PT198H.grib2 2026-04-30 16:32 516K
20260430T12Z_MSC_GDPS_SoilTemp_Sfc_LatLon0.15_PT198H.grib2 2026-04-30 16:32 583K
20260430T12Z_MSC_GDPS_SoilVolumetricIceContent_Sfc_LatLon0.15_PT198H.grib2 2026-04-30 16:32 182K
20260430T12Z_MSC_GDPS_SoilVolumetricWaterContent_DBS-0to10cm_LatLon0.15_PT198H.grib2 2026-04-30 16:32 596K
20260430T12Z_MSC_GDPS_SoilVolumetricWaterContent_DBS-0to1cm_LatLon0.15_PT198H.grib2 2026-04-30 16:32 649K
20260430T12Z_MSC_GDPS_SpecificHumidity_AGL-120m_LatLon0.15_PT198H.grib2 2026-04-30 16:32 1.1M
20260430T12Z_MSC_GDPS_SpecificHumidity_AGL-2m_LatLon0.15_PT198H.grib2 2026-04-30 16:32 1.2M
20260430T12Z_MSC_GDPS_SpecificHumidity_AGL-40m_LatLon0.15_PT198H.grib2 2026-04-30 16:32 1.1M
20260430T12Z_MSC_GDPS_SpecificHumidity_AGL-80m_LatLon0.15_PT198H.grib2 2026-04-30 16:32 1.1M
20260430T12Z_MSC_GDPS_SpecificHumidity_IsbL-0001_LatLon0.15_PT198H.grib2 2026-04-30 16:32 1.1M
20260430T12Z_MSC_GDPS_SpecificHumidity_IsbL-0005_LatLon0.15_PT198H.grib2 2026-04-30 16:32 1.0M
20260430T12Z_MSC_GDPS_SpecificHumidity_IsbL-0010_LatLon0.15_PT198H.grib2 2026-04-30 16:32 1.1M
20260430T12Z_MSC_GDPS_SpecificHumidity_IsbL-0020_LatLon0.15_PT198H.grib2 2026-04-30 16:32 1.2M
20260430T12Z_MSC_GDPS_SpecificHumidity_IsbL-0030_LatLon0.15_PT198H.grib2 2026-04-30 16:32 1.4M
20260430T12Z_MSC_GDPS_SpecificHumidity_IsbL-0050_LatLon0.15_PT198H.grib2 2026-04-30 16:32 1.5M
20260430T12Z_MSC_GDPS_SpecificHumidity_IsbL-0100_LatLon0.15_PT198H.grib2 2026-04-30 16:32 1.2M
20260430T12Z_MSC_GDPS_SpecificHumidity_IsbL-0150_LatLon0.15_PT198H.grib2 2026-04-30 16:32 1.3M
20260430T12Z_MSC_GDPS_SpecificHumidity_IsbL-0175_LatLon0.15_PT198H.grib2 2026-04-30 16:32 1.3M
20260430T12Z_MSC_GDPS_SpecificHumidity_IsbL-0200_LatLon0.15_PT198H.grib2 2026-04-30 16:32 1.3M
20260430T12Z_MSC_GDPS_SpecificHumidity_IsbL-0225_LatLon0.15_PT198H.grib2 2026-04-30 16:32 1.3M
20260430T12Z_MSC_GDPS_SpecificHumidity_IsbL-0250_LatLon0.15_PT198H.grib2 2026-04-30 16:32 1.2M
20260430T12Z_MSC_GDPS_SpecificHumidity_IsbL-0275_LatLon0.15_PT198H.grib2 2026-04-30 16:32 1.4M
20260430T12Z_MSC_GDPS_SpecificHumidity_IsbL-0300_LatLon0.15_PT198H.grib2 2026-04-30 16:32 1.3M
20260430T12Z_MSC_GDPS_SpecificHumidity_IsbL-0350_LatLon0.15_PT198H.grib2 2026-04-30 16:32 1.2M
20260430T12Z_MSC_GDPS_SpecificHumidity_IsbL-0400_LatLon0.15_PT198H.grib2 2026-04-30 16:32 1.4M
20260430T12Z_MSC_GDPS_SpecificHumidity_IsbL-0450_LatLon0.15_PT198H.grib2 2026-04-30 16:32 1.3M
20260430T12Z_MSC_GDPS_SpecificHumidity_IsbL-0500_LatLon0.15_PT198H.grib2 2026-04-30 16:32 1.5M
20260430T12Z_MSC_GDPS_SpecificHumidity_IsbL-0550_LatLon0.15_PT198H.grib2 2026-04-30 16:32 1.6M
20260430T12Z_MSC_GDPS_SpecificHumidity_IsbL-0600_LatLon0.15_PT198H.grib2 2026-04-30 16:32 1.4M
20260430T12Z_MSC_GDPS_SpecificHumidity_IsbL-0650_LatLon0.15_PT198H.grib2 2026-04-30 16:32 1.5M
20260430T12Z_MSC_GDPS_SpecificHumidity_IsbL-0700_LatLon0.15_PT198H.grib2 2026-04-30 16:32 1.6M
20260430T12Z_MSC_GDPS_SpecificHumidity_IsbL-0750_LatLon0.15_PT198H.grib2 2026-04-30 16:32 1.8M
20260430T12Z_MSC_GDPS_SpecificHumidity_IsbL-0800_LatLon0.15_PT198H.grib2 2026-04-30 16:32 1.9M
20260430T12Z_MSC_GDPS_SpecificHumidity_IsbL-0850_LatLon0.15_PT198H.grib2 2026-04-30 16:32 2.0M
20260430T12Z_MSC_GDPS_SpecificHumidity_IsbL-0875_LatLon0.15_PT198H.grib2 2026-04-30 16:32 2.0M
20260430T12Z_MSC_GDPS_SpecificHumidity_IsbL-0900_LatLon0.15_PT198H.grib2 2026-04-30 16:32 2.0M
20260430T12Z_MSC_GDPS_SpecificHumidity_IsbL-0925_LatLon0.15_PT198H.grib2 2026-04-30 16:32 1.6M
20260430T12Z_MSC_GDPS_SpecificHumidity_IsbL-0950_LatLon0.15_PT198H.grib2 2026-04-30 16:32 1.6M
20260430T12Z_MSC_GDPS_SpecificHumidity_IsbL-0970_LatLon0.15_PT198H.grib2 2026-04-30 16:32 1.6M
20260430T12Z_MSC_GDPS_SpecificHumidity_IsbL-0985_LatLon0.15_PT198H.grib2 2026-04-30 16:32 1.5M
20260430T12Z_MSC_GDPS_SpecificHumidity_IsbL-1000_LatLon0.15_PT198H.grib2 2026-04-30 16:32 1.5M
20260430T12Z_MSC_GDPS_SpecificHumidity_IsbL-1015_LatLon0.15_PT198H.grib2 2026-04-30 16:32 1.5M
20260430T12Z_MSC_GDPS_SpecificHumidity_Sfc_LatLon0.15_PT198H.grib2 2026-04-30 16:32 680K
20260430T12Z_MSC_GDPS_Thickness_IsbL-0850to0700_LatLon0.15_PT198H.grib2 2026-04-30 16:32 471K
20260430T12Z_MSC_GDPS_Thickness_IsbL-1000to0500_LatLon0.15_PT198H.grib2 2026-04-30 16:32 377K
20260430T12Z_MSC_GDPS_Thickness_IsbL-1000to0850_LatLon0.15_PT198H.grib2 2026-04-30 16:32 492K
20260430T12Z_MSC_GDPS_TotalCloudCover_Sfc_LatLon0.15_PT198H.grib2 2026-04-30 16:32 841K
20260430T12Z_MSC_GDPS_TotalTotalsIndex_Sfc_LatLon0.15_PT198H.grib2 2026-04-30 16:32 6.2M
20260430T12Z_MSC_GDPS_UVIndex-ClearSky-Max24h_Sfc_LatLon0.15_PT198H.grib2 2026-04-30 16:46 2.2M
20260430T12Z_MSC_GDPS_UVIndex-ClearSky_Sfc_LatLon0.15_PT198H.grib2 2026-04-30 16:46 1.0M
20260430T12Z_MSC_GDPS_UVIndex-Max24h_Sfc_LatLon0.15_PT198H.grib2 2026-04-30 16:46 3.2M
20260430T12Z_MSC_GDPS_UVIndex_Sfc_LatLon0.15_PT198H.grib2 2026-04-30 16:46 1.5M
20260430T12Z_MSC_GDPS_UpwardLongwaveRadiationFlux_NTAtm_LatLon0.15_PT198H.grib2 2026-04-30 16:32 847K
20260430T12Z_MSC_GDPS_VerticalVelocity_IsbL-0200_LatLon0.15_PT198H.grib2 2026-04-30 16:32 1.2M
20260430T12Z_MSC_GDPS_VerticalVelocity_IsbL-0250_LatLon0.15_PT198H.grib2 2026-04-30 16:32 1.0M
20260430T12Z_MSC_GDPS_VerticalVelocity_IsbL-0500_LatLon0.15_PT198H.grib2 2026-04-30 16:32 1.3M
20260430T12Z_MSC_GDPS_VerticalVelocity_IsbL-0600_LatLon0.15_PT198H.grib2 2026-04-30 16:32 1.1M
20260430T12Z_MSC_GDPS_VerticalVelocity_IsbL-0700_LatLon0.15_PT198H.grib2 2026-04-30 16:32 1.1M
20260430T12Z_MSC_GDPS_VerticalVelocity_IsbL-0850_LatLon0.15_PT198H.grib2 2026-04-30 16:32 1.6M
20260430T12Z_MSC_GDPS_WindChill_Sfc_LatLon0.15_PT198H.grib2 2026-04-30 16:32 5.3M
20260430T12Z_MSC_GDPS_WindDir_AGL-10m_LatLon0.15_PT198H.grib2 2026-04-30 16:32 1.3M
20260430T12Z_MSC_GDPS_WindDir_AGL-120m_LatLon0.15_PT198H.grib2 2026-04-30 16:32 1.4M
20260430T12Z_MSC_GDPS_WindDir_AGL-40m_LatLon0.15_PT198H.grib2 2026-04-30 16:32 1.4M
20260430T12Z_MSC_GDPS_WindDir_AGL-80m_LatLon0.15_PT198H.grib2 2026-04-30 16:32 1.4M
20260430T12Z_MSC_GDPS_WindDir_IsbL-0001_LatLon0.15_PT198H.grib2 2026-04-30 16:32 659K
20260430T12Z_MSC_GDPS_WindDir_IsbL-0005_LatLon0.15_PT198H.grib2 2026-04-30 16:32 812K
20260430T12Z_MSC_GDPS_WindDir_IsbL-0010_LatLon0.15_PT198H.grib2 2026-04-30 16:32 820K
20260430T12Z_MSC_GDPS_WindDir_IsbL-0020_LatLon0.15_PT198H.grib2 2026-04-30 16:32 938K
20260430T12Z_MSC_GDPS_WindDir_IsbL-0030_LatLon0.15_PT198H.grib2 2026-04-30 16:32 939K
20260430T12Z_MSC_GDPS_WindDir_IsbL-0050_LatLon0.15_PT198H.grib2 2026-04-30 16:32 956K
20260430T12Z_MSC_GDPS_WindDir_IsbL-0100_LatLon0.15_PT198H.grib2 2026-04-30 16:32 1.0M
20260430T12Z_MSC_GDPS_WindDir_IsbL-0150_LatLon0.15_PT198H.grib2 2026-04-30 16:32 1.0M
20260430T12Z_MSC_GDPS_WindDir_IsbL-0175_LatLon0.15_PT198H.grib2 2026-04-30 16:32 1.1M
20260430T12Z_MSC_GDPS_WindDir_IsbL-0200_LatLon0.15_PT198H.grib2 2026-04-30 16:32 1.1M
20260430T12Z_MSC_GDPS_WindDir_IsbL-0225_LatLon0.15_PT198H.grib2 2026-04-30 16:32 1.1M
20260430T12Z_MSC_GDPS_WindDir_IsbL-0250_LatLon0.15_PT198H.grib2 2026-04-30 16:32 1.1M
20260430T12Z_MSC_GDPS_WindDir_IsbL-0275_LatLon0.15_PT198H.grib2 2026-04-30 16:32 1.2M
20260430T12Z_MSC_GDPS_WindDir_IsbL-0300_LatLon0.15_PT198H.grib2 2026-04-30 16:32 1.2M
20260430T12Z_MSC_GDPS_WindDir_IsbL-0350_LatLon0.15_PT198H.grib2 2026-04-30 16:32 1.3M
20260430T12Z_MSC_GDPS_WindDir_IsbL-0400_LatLon0.15_PT198H.grib2 2026-04-30 16:32 1.3M
20260430T12Z_MSC_GDPS_WindDir_IsbL-0450_LatLon0.15_PT198H.grib2 2026-04-30 16:32 1.3M
20260430T12Z_MSC_GDPS_WindDir_IsbL-0500_LatLon0.15_PT198H.grib2 2026-04-30 16:32 1.4M
20260430T12Z_MSC_GDPS_WindDir_IsbL-0550_LatLon0.15_PT198H.grib2 2026-04-30 16:32 1.4M
20260430T12Z_MSC_GDPS_WindDir_IsbL-0600_LatLon0.15_PT198H.grib2 2026-04-30 16:32 1.5M
20260430T12Z_MSC_GDPS_WindDir_IsbL-0650_LatLon0.15_PT198H.grib2 2026-04-30 16:32 1.5M
20260430T12Z_MSC_GDPS_WindDir_IsbL-0700_LatLon0.15_PT198H.grib2 2026-04-30 16:32 1.6M
20260430T12Z_MSC_GDPS_WindDir_IsbL-0750_LatLon0.15_PT198H.grib2 2026-04-30 16:32 1.7M
20260430T12Z_MSC_GDPS_WindDir_IsbL-0800_LatLon0.15_PT198H.grib2 2026-04-30 16:32 1.8M
20260430T12Z_MSC_GDPS_WindDir_IsbL-0850_LatLon0.15_PT198H.grib2 2026-04-30 16:32 1.9M
20260430T12Z_MSC_GDPS_WindDir_IsbL-0875_LatLon0.15_PT198H.grib2 2026-04-30 16:32 2.0M
20260430T12Z_MSC_GDPS_WindDir_IsbL-0900_LatLon0.15_PT198H.grib2 2026-04-30 16:32 2.0M
20260430T12Z_MSC_GDPS_WindDir_IsbL-0925_LatLon0.15_PT198H.grib2 2026-04-30 16:32 2.0M
20260430T12Z_MSC_GDPS_WindDir_IsbL-0950_LatLon0.15_PT198H.grib2 2026-04-30 16:32 2.0M
20260430T12Z_MSC_GDPS_WindDir_IsbL-0970_LatLon0.15_PT198H.grib2 2026-04-30 16:32 2.0M
20260430T12Z_MSC_GDPS_WindDir_IsbL-0985_LatLon0.15_PT198H.grib2 2026-04-30 16:32 2.0M
20260430T12Z_MSC_GDPS_WindDir_IsbL-1000_LatLon0.15_PT198H.grib2 2026-04-30 16:32 2.1M
20260430T12Z_MSC_GDPS_WindDir_IsbL-1015_LatLon0.15_PT198H.grib2 2026-04-30 16:32 2.0M
20260430T12Z_MSC_GDPS_WindGust-Max_AGL-10m_LatLon0.15_PT198H.grib2 2026-04-30 16:32 2.2M
20260430T12Z_MSC_GDPS_WindGust-Min_AGL-10m_LatLon0.15_PT198H.grib2 2026-04-30 16:32 2.2M
20260430T12Z_MSC_GDPS_WindGust_AGL-10m_LatLon0.15_PT198H.grib2 2026-04-30 16:32 2.2M
20260430T12Z_MSC_GDPS_WindSpeed_AGL-10m_LatLon0.15_PT198H.grib2 2026-04-30 16:32 1.1M
20260430T12Z_MSC_GDPS_WindSpeed_AGL-120m_LatLon0.15_PT198H.grib2 2026-04-30 16:32 1.2M
20260430T12Z_MSC_GDPS_WindSpeed_AGL-40m_LatLon0.15_PT198H.grib2 2026-04-30 16:32 1.2M
20260430T12Z_MSC_GDPS_WindSpeed_AGL-80m_LatLon0.15_PT198H.grib2 2026-04-30 16:32 1.2M
20260430T12Z_MSC_GDPS_WindSpeed_IsbL-0001_LatLon0.15_PT198H.grib2 2026-04-30 16:32 652K
20260430T12Z_MSC_GDPS_WindSpeed_IsbL-0005_LatLon0.15_PT198H.grib2 2026-04-30 16:32 694K
20260430T12Z_MSC_GDPS_WindSpeed_IsbL-0010_LatLon0.15_PT198H.grib2 2026-04-30 16:32 623K
20260430T12Z_MSC_GDPS_WindSpeed_IsbL-0020_LatLon0.15_PT198H.grib2 2026-04-30 16:32 658K
20260430T12Z_MSC_GDPS_WindSpeed_IsbL-0030_LatLon0.15_PT198H.grib2 2026-04-30 16:32 855K
20260430T12Z_MSC_GDPS_WindSpeed_IsbL-0050_LatLon0.15_PT198H.grib2 2026-04-30 16:32 892K
20260430T12Z_MSC_GDPS_WindSpeed_IsbL-0100_LatLon0.15_PT198H.grib2 2026-04-30 16:32 1.1M
20260430T12Z_MSC_GDPS_WindSpeed_IsbL-0150_LatLon0.15_PT198H.grib2 2026-04-30 16:32 1.0M
20260430T12Z_MSC_GDPS_WindSpeed_IsbL-0175_LatLon0.15_PT198H.grib2 2026-04-30 16:32 1.0M
20260430T12Z_MSC_GDPS_WindSpeed_IsbL-0200_LatLon0.15_PT198H.grib2 2026-04-30 16:32 1.0M
20260430T12Z_MSC_GDPS_WindSpeed_IsbL-0225_LatLon0.15_PT198H.grib2 2026-04-30 16:32 1.1M
20260430T12Z_MSC_GDPS_WindSpeed_IsbL-0250_LatLon0.15_PT198H.grib2 2026-04-30 16:32 1.1M
20260430T12Z_MSC_GDPS_WindSpeed_IsbL-0275_LatLon0.15_PT198H.grib2 2026-04-30 16:32 1.1M
20260430T12Z_MSC_GDPS_WindSpeed_IsbL-0300_LatLon0.15_PT198H.grib2 2026-04-30 16:32 1.1M
20260430T12Z_MSC_GDPS_WindSpeed_IsbL-0350_LatLon0.15_PT198H.grib2 2026-04-30 16:32 1.1M
20260430T12Z_MSC_GDPS_WindSpeed_IsbL-0400_LatLon0.15_PT198H.grib2 2026-04-30 16:32 1.1M
20260430T12Z_MSC_GDPS_WindSpeed_IsbL-0450_LatLon0.15_PT198H.grib2 2026-04-30 16:32 1.1M
20260430T12Z_MSC_GDPS_WindSpeed_IsbL-0500_LatLon0.15_PT198H.grib2 2026-04-30 16:32 1.1M
20260430T12Z_MSC_GDPS_WindSpeed_IsbL-0550_LatLon0.15_PT198H.grib2 2026-04-30 16:32 1.1M
20260430T12Z_MSC_GDPS_WindSpeed_IsbL-0600_LatLon0.15_PT198H.grib2 2026-04-30 16:32 1.1M
20260430T12Z_MSC_GDPS_WindSpeed_IsbL-0650_LatLon0.15_PT198H.grib2 2026-04-30 16:32 1.5M
20260430T12Z_MSC_GDPS_WindSpeed_IsbL-0700_LatLon0.15_PT198H.grib2 2026-04-30 16:32 1.5M
20260430T12Z_MSC_GDPS_WindSpeed_IsbL-0750_LatLon0.15_PT198H.grib2 2026-04-30 16:32 1.6M
20260430T12Z_MSC_GDPS_WindSpeed_IsbL-0800_LatLon0.15_PT198H.grib2 2026-04-30 16:32 1.7M
20260430T12Z_MSC_GDPS_WindSpeed_IsbL-0850_LatLon0.15_PT198H.grib2 2026-04-30 16:32 1.8M
20260430T12Z_MSC_GDPS_WindSpeed_IsbL-0875_LatLon0.15_PT198H.grib2 2026-04-30 16:32 1.8M
20260430T12Z_MSC_GDPS_WindSpeed_IsbL-0900_LatLon0.15_PT198H.grib2 2026-04-30 16:32 1.9M
20260430T12Z_MSC_GDPS_WindSpeed_IsbL-0925_LatLon0.15_PT198H.grib2 2026-04-30 16:32 1.9M
20260430T12Z_MSC_GDPS_WindSpeed_IsbL-0950_LatLon0.15_PT198H.grib2 2026-04-30 16:32 1.9M
20260430T12Z_MSC_GDPS_WindSpeed_IsbL-0970_LatLon0.15_PT198H.grib2 2026-04-30 16:32 1.9M
20260430T12Z_MSC_GDPS_WindSpeed_IsbL-0985_LatLon0.15_PT198H.grib2 2026-04-30 16:32 1.9M
20260430T12Z_MSC_GDPS_WindSpeed_IsbL-1000_LatLon0.15_PT198H.grib2 2026-04-30 16:32 1.9M
20260430T12Z_MSC_GDPS_WindSpeed_IsbL-1015_LatLon0.15_PT198H.grib2 2026-04-30 16:32 1.8M
20260430T12Z_MSC_GDPS_WindU_AGL-10m_LatLon0.15_PT198H.grib2 2026-04-30 16:32 1.3M
20260430T12Z_MSC_GDPS_WindU_AGL-120m_LatLon0.15_PT198H.grib2 2026-04-30 16:32 1.0M
20260430T12Z_MSC_GDPS_WindU_AGL-40m_LatLon0.15_PT198H.grib2 2026-04-30 16:32 972K
20260430T12Z_MSC_GDPS_WindU_AGL-80m_LatLon0.15_PT198H.grib2 2026-04-30 16:32 1.0M
20260430T12Z_MSC_GDPS_WindU_IsbL-0001_LatLon0.15_PT198H.grib2 2026-04-30 16:32 504K
20260430T12Z_MSC_GDPS_WindU_IsbL-0005_LatLon0.15_PT198H.grib2 2026-04-30 16:32 693K
20260430T12Z_MSC_GDPS_WindU_IsbL-0010_LatLon0.15_PT198H.grib2 2026-04-30 16:32 698K
20260430T12Z_MSC_GDPS_WindU_IsbL-0020_LatLon0.15_PT198H.grib2 2026-04-30 16:32 724K
20260430T12Z_MSC_GDPS_WindU_IsbL-0030_LatLon0.15_PT198H.grib2 2026-04-30 16:32 732K
20260430T12Z_MSC_GDPS_WindU_IsbL-0050_LatLon0.15_PT198H.grib2 2026-04-30 16:32 756K
20260430T12Z_MSC_GDPS_WindU_IsbL-0100_LatLon0.15_PT198H.grib2 2026-04-30 16:32 863K
20260430T12Z_MSC_GDPS_WindU_IsbL-0150_LatLon0.15_PT198H.grib2 2026-04-30 16:32 1.0M
20260430T12Z_MSC_GDPS_WindU_IsbL-0175_LatLon0.15_PT198H.grib2 2026-04-30 16:32 1.0M
20260430T12Z_MSC_GDPS_WindU_IsbL-0200_LatLon0.15_PT198H.grib2 2026-04-30 16:32 838K
20260430T12Z_MSC_GDPS_WindU_IsbL-0225_LatLon0.15_PT198H.grib2 2026-04-30 16:32 852K
20260430T12Z_MSC_GDPS_WindU_IsbL-0250_LatLon0.15_PT198H.grib2 2026-04-30 16:32 855K
20260430T12Z_MSC_GDPS_WindU_IsbL-0275_LatLon0.15_PT198H.grib2 2026-04-30 16:32 885K
20260430T12Z_MSC_GDPS_WindU_IsbL-0300_LatLon0.15_PT198H.grib2 2026-04-30 16:32 878K
20260430T12Z_MSC_GDPS_WindU_IsbL-0350_LatLon0.15_PT198H.grib2 2026-04-30 16:32 891K
20260430T12Z_MSC_GDPS_WindU_IsbL-0400_LatLon0.15_PT198H.grib2 2026-04-30 16:32 896K
20260430T12Z_MSC_GDPS_WindU_IsbL-0450_LatLon0.15_PT198H.grib2 2026-04-30 16:32 1.1M
20260430T12Z_MSC_GDPS_WindU_IsbL-0500_LatLon0.15_PT198H.grib2 2026-04-30 16:32 1.1M
20260430T12Z_MSC_GDPS_WindU_IsbL-0550_LatLon0.15_PT198H.grib2 2026-04-30 16:32 1.1M
20260430T12Z_MSC_GDPS_WindU_IsbL-0600_LatLon0.15_PT198H.grib2 2026-04-30 16:32 1.2M
20260430T12Z_MSC_GDPS_WindU_IsbL-0650_LatLon0.15_PT198H.grib2 2026-04-30 16:32 1.2M
20260430T12Z_MSC_GDPS_WindU_IsbL-0700_LatLon0.15_PT198H.grib2 2026-04-30 16:32 1.2M
20260430T12Z_MSC_GDPS_WindU_IsbL-0750_LatLon0.15_PT198H.grib2 2026-04-30 16:32 1.3M
20260430T12Z_MSC_GDPS_WindU_IsbL-0800_LatLon0.15_PT198H.grib2 2026-04-30 16:32 1.4M
20260430T12Z_MSC_GDPS_WindU_IsbL-0850_LatLon0.15_PT198H.grib2 2026-04-30 16:32 1.4M
20260430T12Z_MSC_GDPS_WindU_IsbL-0875_LatLon0.15_PT198H.grib2 2026-04-30 16:32 1.5M
20260430T12Z_MSC_GDPS_WindU_IsbL-0900_LatLon0.15_PT198H.grib2 2026-04-30 16:32 1.5M
20260430T12Z_MSC_GDPS_WindU_IsbL-0925_LatLon0.15_PT198H.grib2 2026-04-30 16:32 1.5M
20260430T12Z_MSC_GDPS_WindU_IsbL-0950_LatLon0.15_PT198H.grib2 2026-04-30 16:32 1.5M
20260430T12Z_MSC_GDPS_WindU_IsbL-0970_LatLon0.15_PT198H.grib2 2026-04-30 16:32 1.4M
20260430T12Z_MSC_GDPS_WindU_IsbL-0985_LatLon0.15_PT198H.grib2 2026-04-30 16:32 1.4M
20260430T12Z_MSC_GDPS_WindU_IsbL-1000_LatLon0.15_PT198H.grib2 2026-04-30 16:32 1.4M
20260430T12Z_MSC_GDPS_WindU_IsbL-1015_LatLon0.15_PT198H.grib2 2026-04-30 16:32 1.4M
20260430T12Z_MSC_GDPS_WindV_AGL-10m_LatLon0.15_PT198H.grib2 2026-04-30 16:32 1.6M
20260430T12Z_MSC_GDPS_WindV_AGL-120m_LatLon0.15_PT198H.grib2 2026-04-30 16:32 1.0M
20260430T12Z_MSC_GDPS_WindV_AGL-40m_LatLon0.15_PT198H.grib2 2026-04-30 16:32 1.0M
20260430T12Z_MSC_GDPS_WindV_AGL-80m_LatLon0.15_PT198H.grib2 2026-04-30 16:32 1.0M
20260430T12Z_MSC_GDPS_WindV_IsbL-0001_LatLon0.15_PT198H.grib2 2026-04-30 16:32 719K
20260430T12Z_MSC_GDPS_WindV_IsbL-0005_LatLon0.15_PT198H.grib2 2026-04-30 16:32 860K
20260430T12Z_MSC_GDPS_WindV_IsbL-0010_LatLon0.15_PT198H.grib2 2026-04-30 16:32 882K
20260430T12Z_MSC_GDPS_WindV_IsbL-0020_LatLon0.15_PT198H.grib2 2026-04-30 16:32 843K
20260430T12Z_MSC_GDPS_WindV_IsbL-0030_LatLon0.15_PT198H.grib2 2026-04-30 16:32 847K
20260430T12Z_MSC_GDPS_WindV_IsbL-0050_LatLon0.15_PT198H.grib2 2026-04-30 16:32 971K
20260430T12Z_MSC_GDPS_WindV_IsbL-0100_LatLon0.15_PT198H.grib2 2026-04-30 16:32 1.1M
20260430T12Z_MSC_GDPS_WindV_IsbL-0150_LatLon0.15_PT198H.grib2 2026-04-30 16:32 1.0M
20260430T12Z_MSC_GDPS_WindV_IsbL-0175_LatLon0.15_PT198H.grib2 2026-04-30 16:32 1.0M
20260430T12Z_MSC_GDPS_WindV_IsbL-0200_LatLon0.15_PT198H.grib2 2026-04-30 16:32 836K
20260430T12Z_MSC_GDPS_WindV_IsbL-0225_LatLon0.15_PT198H.grib2 2026-04-30 16:32 847K
20260430T12Z_MSC_GDPS_WindV_IsbL-0250_LatLon0.15_PT198H.grib2 2026-04-30 16:32 848K
20260430T12Z_MSC_GDPS_WindV_IsbL-0275_LatLon0.15_PT198H.grib2 2026-04-30 16:32 877K
20260430T12Z_MSC_GDPS_WindV_IsbL-0300_LatLon0.15_PT198H.grib2 2026-04-30 16:32 867K
20260430T12Z_MSC_GDPS_WindV_IsbL-0350_LatLon0.15_PT198H.grib2 2026-04-30 16:32 880K
20260430T12Z_MSC_GDPS_WindV_IsbL-0400_LatLon0.15_PT198H.grib2 2026-04-30 16:32 884K
20260430T12Z_MSC_GDPS_WindV_IsbL-0450_LatLon0.15_PT198H.grib2 2026-04-30 16:32 1.1M
20260430T12Z_MSC_GDPS_WindV_IsbL-0500_LatLon0.15_PT198H.grib2 2026-04-30 16:32 1.1M
20260430T12Z_MSC_GDPS_WindV_IsbL-0550_LatLon0.15_PT198H.grib2 2026-04-30 16:32 1.1M
20260430T12Z_MSC_GDPS_WindV_IsbL-0600_LatLon0.15_PT198H.grib2 2026-04-30 16:32 1.1M
20260430T12Z_MSC_GDPS_WindV_IsbL-0650_LatLon0.15_PT198H.grib2 2026-04-30 16:32 1.2M
20260430T12Z_MSC_GDPS_WindV_IsbL-0700_LatLon0.15_PT198H.grib2 2026-04-30 16:32 1.2M
20260430T12Z_MSC_GDPS_WindV_IsbL-0750_LatLon0.15_PT198H.grib2 2026-04-30 16:32 1.3M
20260430T12Z_MSC_GDPS_WindV_IsbL-0800_LatLon0.15_PT198H.grib2 2026-04-30 16:32 1.3M
20260430T12Z_MSC_GDPS_WindV_IsbL-0850_LatLon0.15_PT198H.grib2 2026-04-30 16:32 1.4M
20260430T12Z_MSC_GDPS_WindV_IsbL-0875_LatLon0.15_PT198H.grib2 2026-04-30 16:32 1.5M
20260430T12Z_MSC_GDPS_WindV_IsbL-0900_LatLon0.15_PT198H.grib2 2026-04-30 16:32 1.5M
20260430T12Z_MSC_GDPS_WindV_IsbL-0925_LatLon0.15_PT198H.grib2 2026-04-30 16:32 1.5M
20260430T12Z_MSC_GDPS_WindV_IsbL-0950_LatLon0.15_PT198H.grib2 2026-04-30 16:32 1.4M
20260430T12Z_MSC_GDPS_WindV_IsbL-0970_LatLon0.15_PT198H.grib2 2026-04-30 16:32 1.4M
20260430T12Z_MSC_GDPS_WindV_IsbL-0985_LatLon0.15_PT198H.grib2 2026-04-30 16:32 1.4M
20260430T12Z_MSC_GDPS_WindV_IsbL-1000_LatLon0.15_PT198H.grib2 2026-04-30 16:32 1.4M
20260430T12Z_MSC_GDPS_WindV_IsbL-1015_LatLon0.15_PT198H.grib2 2026-04-30 16:32 1.4M